COSMOS 841

导读

COSMOS 841是苏联(CIS独联体前身)于1976年7月15日发射的卫星,隶属于苏联"宇宙(COSMOS)"卫星系列。该系列广泛涵盖军事侦察、技术试验与空间科学任务,统一命名方式模糊了卫星具体用途,是冷战时期苏联航天保密策略的典型体现。这颗卫星是冷战太空竞赛背景下,苏联航天活动持续推进的见证,大部分同系列卫星已退役成为空间碎片。

Basic Information
目录编号:
9022
目录名称:
COSMOS 841
国际标识:
1976-069A
轨道中心:
EARTH
卫星名称:
COSMOS 841
卫星全名:
--
卫星状态:
在轨 (已飞行18323 天)
发射日期:
1976-07-15 UTC
国别 :
俄罗斯(独联体) (CIS)
星等 :
--
This satellite is enrolled in the Space Conjunction Data Service (SCDS) and the current flight risk assessment level is: No High Risk
Orbit Information
数据来源 国际轨道数据 AOE轨道数据
星历时间 2026-09-14T00:01:12+0800
15小时前
查看轨道信息
2026-09-13T00:00:00+0800
1天前
查看轨道信息
半长轴 7147.059km 7147.047km
偏心率 0.0013316 0.001234
轨道倾角 74.043° 74.042°
近地点辐角 203.906° 206.884°
升交点赤经 138.439° 140.279°
平近点角 156.148° 18.291°
近地点 759.404km 760.09km
远地点 778.44km 777.73km
周期 100.219分钟 100.219分钟
每日圈数 14.36851 14.368546
Detailed Information
使用方式:
暂无
2D Orbit Map
3D Orbit Map
Orbit Altitude Analysis Chart
Orbit Inclination Analysis Chart
Orbit Comprehensive Analysis Chart
View Comprehensive Chart
Conjunction Data List
Event ID Objects TCA Miss Dist (km) Collision Risk Probability Collision Risk Index (CRI) Action
CDM_260915-193500-902205-552023
2026-09-15T
19:35:26+0000
2.719 km
极远距离
1.532182E-6 低风险 0.39
CDM_260914-172800-902203-047422
2026-09-14T
17:28:17+0000
2.933 km
极远距离
1.344029E-6 低风险 0.38
Miss Distance Evolution Trend with All Objects Subscribe to Flight Safety Assessment
Collision Probability Evolution Trend with All Objects Subscribe to Flight Safety Assessment